Starlink 3804

operational
NORAD ID: 52270 Int'l Des: 2022-041 Owner: SPXS Country: US Constellation: starlink
LEOCIRCULAR

关于 Starlink 3804

正在加载描述...

实时位置

正在加载3D地球...

即将过境

高度历史

Altitude vs Time

uPlot chart will show altitude changes over time

两行轨道根数

1 52270U 22041K 25296.70170149 .00001102 00000-0 87336-4 0 9993
2 52270 53.2191 4.1142 0001221 93.7100 266.4032 15.08842014193680
Epoch: Oct 23, 2025 • Age: 26 hours

当前状态

高度 544.8 km
速度 7.60 km/s
星下点 50.25°N, 161.25°E
发射日期 Apr 21, 2022
运行时间 3.5 years
类型 internet

技术详情

分类 Payload
质量 297.00 kg
干质量 275.00 kg
总质量 297.00 kg
长度 0.20 m
直径 2.80 m
跨度 9.00 m
形状 Box + pan
制造商 SPXS
平台类型 Starlink
阶段状态 In Orbit
所有者/国家 SPXS/US

大型星座

Loading constellations...